"Pseudo-MPEC" for 2018-103B = NORAD 43846 = Chang'e 4 booster

Created 2019 Mar 31 14:23:36 UT using Find_Orb

Click here for an explanation of pseudo-MPECs

TLEs are available for this object. (Currently running to July 2019. By then, we'll probably get more observations.) Space-Track had TLEs for this object, but they involved the object being in low-earth orbit and were essentially works of fiction.

You can click here to generate ephemerides for a particular place and time span. Enter the "object name" as "Old A10azqL" (the name under which the object was first found) and set the rest of the ephemeris quantities as you wish.

Jost Jahn was able to image this object in mid-March from (C95) ROTAT (click here for a timelapse video), with further data the next day from Masayaki Suzuki at (U69). Jost saw a possible light-curve of about 20 minutes, which would be unusually long for an empty booster. At the following perigee on March 30, Jost again got data on the object, and CSS swept it up the next day in the course of routine asteroid surveying. So the orbit is quite well-determined at this point.

With the new data, the effects of solar radiation pressure are now noticeable; we have a reasonably well-determined area/mass ratio and can say something about where the object will be over the coming year with a decent degree of confidence. The object is doing a good job of staying away from the moon; it gets within about 85000 km on 2019 April 26, which will raise its perigee from about 100000 km to about 150000 km, increasing the orbital period from about 18 days to about 22 days. Unfortunately, I don't see it hitting the earth or moon in the next few years. (But it is an artsat, in a somewhat chaotic orbit.)

My initial orbit for this object was based on the first four observations (the ones made as the object was still going toward the moon) plus the knowledge that it had been near a perigee of about 200 km a little after launch time. This resulted in something close to a wild guess, though probably good enough over the short term that somebody could have observed the object if they had wanted to. It was the best I could do at the time; the Chinese space agency is very close-mouthed about where things are going.

In hindsight, my "guess" gave a perilune that was off by about two hours and a prograde pass; the actual lunar flyby was retrograde. As a result, the object ended up in a lower orbit than I expected (period of about 16 days, not 37). The orbital period has since increased by a couple of days due to lunar and solar perturbations.

 
 Astrometry: 
     A10azqL  C2018 12 09wwFKw3Astrometry4fV(7Z8MXi:i4cZ`CX#F](UfRdW;hk[xMrY?T05
     A10azqL  C2018 12 09k.:ZwWn]!Ma!dCVPw.nx?0fdkd7Credacted;Wr5?fICrDy;Fc^9T05
     A10azqL  C2018 12 09[ebY*ryI=`5aq-PksT-=La;Kah:'v]i/A;cj3'+HB0MG)[/-p2MWT05
     A10azqL  C2018 12 09gu[=X%'tDDaKO0G,@NS#/bXpYt(`Q\''rE9Qm%J8gOgQvsKK'NZiT05
     A10aHKA  C2018 12 15,QZ3bfJjmvi,MI,slsHYJx-u#4$8W0CZEVv1Z@clickXVcd]2j+0T08
     A10aHKA  C2018 12 15c-Dh`+ccshereg!PRxdQ/;bi[@E^]1W'=gE$e3dJvNC)NJ(l!7-=T08
     A10aHKA  C2018 12 15ZC7ZBurSRyJtDO9forW9d.Aaexplanation%iP-\+xCX@9mb4epAT08
     A10aHKA  C2018 12 15d@ocI.@=L(84.=#8$9wV7y5W8\t'GDeqNhYI_,Qwt:;w,?k^P(7eT08
2018-103B     CK181217:02295858 227.70806   +27.89912            15.1 GV     J95
2018-103B     CK181217:02470636 228.77451   +27.73545            14.3 GV     J95
2018-103B     CK181217:02501379 228.96439   +27.70528            14.8 GV     J95
2018-103B     CK181217:02562616 229.33760   +27.64495            14.0 GV     J95
2018-103B    KC2019 03 15.07503918 11 41.88 +09 12 14.7          16.3 GV     C95
2018-103B    KC2019 03 15.07735618 11 45.07 +09 11 24.7          15.5 GV     C95
2018-103B    KC2019 03 15.07968018 11 48.31 +09 10 34.8          16.6 GV     C95
2018-103B    KC2019 03 15.08206718 11 51.72 +09 09 40.6          16.2 GV     C95
2018-103B    KC2019 03 16.12443718 38 54.47 +02 59 53.6          15.7 GV     C95
2018-103B    KC2019 03 16.13186918 39 00.38 +02 57 36.7          16.1 GV     C95
2018-103B    KC2019 03 16.13558918 39 03.28 +02 56 28.1          16.2 GV     C95
2018-103B    KC2019 03 16.13930518 39 06.21 +02 55 19.9          15.6 GV     C95
2018-103B    KC2019 03 16.52792 18 47 26.67 +01 01 21.9          16.3 GV     U69
2018-103B    KC2019 03 16.53444 18 47 29.55 +00 59 26.6          17.0 GV     U69
2018-103B    KC2019 03 29.80372506 45 42.16 -01 00 26.3          13.4 GV     C95
2018-103B    KC2019 03 29.80581506 46 15.63 -00 51 50.5          13.3 GV     C95
2018-103B    KC2019 03 29.80790506 46 48.97 -00 43 17.3          13.8 GV     C95
2018-103B    KC2019 03 29.80999206 47 22.33 -00 34 44.1          15.6 GV     C95
     C069NX1  C2019 03 31.41877 15 13 24.91 +34 05 16.6          13.8 GV     703
     C069NX1  C2019 03 31.42945 15 14 32.42 +33 56 18.4          14.0 GV     703

Station data:
(703) Catalina Sky Survey  (N32.417006 W110.732640)  US/Arizona.  Observer R.
   A. Kowalski. Measurers B. M. Africano, E. J. Christensen, G. A. Farneth,
   D. C. Fuls, A. R. Gibbs, A. D. Grauer, H. Groeller, R. A. Kowalski, S. M.
   Larson, G. J. Leonard, T. A. Pruyne, R. L. Seaman, F. C. Shelly. 0.68-m
   Schmidt + 10K CCD.
(C95) SATINO Remote Observatory, Haute Provence  (N43.932042 E5.712390)
   France.  Observer J. Jahn. 0.60-m f/3.2 Newtonian reflector + CCD.
(J95) Great Shefford  (N51.474969 W1.447003)  UK.  Observer P. Birtwhistle.
(T05) ATLAS-HKO, Haleakala  (N20.707582 W156.257008)  US/Hawaii.  Observers
   L. Denneau, A. Heinze, H. Weiland, J. Tonry, H. Flewelling, A.
   Fitzsimmons, D. Young, B. Stalder. Measurers L. Denneau, A. Heinze, J.
   Tonry. 0.5-m f/2.0 Schmidt + CCD.
(T08) ATLAS-MLO, Mauna Loa  (N19.535772 W155.576400)  US/Hawaii.  Observers
   L. Denneau, A. Heinze, H. Weiland, J. Tonry, H. Flewelling, A.
   Fitzsimmons, D. Young, B. Stalder. Measurers L. Denneau, A. Heinze, J.
   Tonry. 0.5-m f/2.0 Schmidt + CCD.
(U69) iTelescope SRO Observatory, Auberry  (N37.070390 W119.413000)
   US/California.  Observer M. Suzuki. 0.61-m f/6.5 reflector + CCD.

Orbital elements:  2018-103B = NORAD 43846 = Chang'e 4 booster
   Perigee 2019 Mar 11.427068 +/- 1.68e-5 TT = 10:14:58 (JD 2458553.927068)
Epoch 2019 Mar 15.0 TT; AMR 0.01119 +/- 7.49e-5 m2/kg        Gray
M  70.82912061 +/- 0.00027          (J2000 equator)
n  19.82381095 +/- 1.77e-5          Peri.   21.32271 +/- 0.00017
a291840.397 +/- 0.173               Node   103.11176 +/- 0.000052
e   0.6631159 +/- 5.11e-7           Incl.   42.62140 +/- 0.000034
P  18.16d                  H 25.9   G  0.15   U  5.4
q 98316.3714 +/- 0.157    Q 485364.423 +/- 0.333
From 28 observations 2018 Dec. 9-2019 Mar. 31; mean residual 1".796
Orbital elements (near launch):  2018-103B = NORAD 43846 = Chang'e 4 booster
   Perigee 2018 Dec 7.777670 +/- 4.63e-5 TT = 18:39:50 (JD 2458460.277670)
Epoch 2018 Dec  7.8 TT = JDT 2458460.3                        Gray
M   0.695783308 +/- 0.0014          (J2000 equator)
n  31.159821357 +/- 0.000411        Peri.  146.358925 +/- 0.0014
a215877.2448 +/- 1.9                Node   354.247304 +/- 0.0016
e   0.96911543 +/- 6.3e-7           Incl.   28.475953 +/- 0.00052
P  11.55d                  H 25.5   G  0.15   U  7.5
q 6667.274145 +/- 0.0897    Q 425087.2155 +/- 3.85
From 12 observations 2018 Dec. 9-17; mean residual 0".341

Orbital elements (lunar flyby):  2018-103B = NORAD 43846 = Chang'e 4 booster
   Perilune 2018 Dec 12.411109 +/- 1.25e-5 TT =  9:51:59 (JD 2458464.911109)
Epoch 2018 Dec 12.4 TT = JDT 2458464.9                        Gray
q  7996.894294 +/- 0.181            (J2000 ecliptic)
H   25.5  G 0.15                    Peri.  104.122563 +/- 0.00037
                                    Node    47.037481 +/- 0.0007
e   2.01955854 +/- 1.8e-5           Incl.  153.987854 +/- 0.00041
From 12 observations 2018 Dec. 9-17; mean residual 0".341
Residuals in arcseconds: 
181209 T05 .030- .032+    181217 J95 .301- .231+    190316 U69 .934- .186-
181209 T05 .122+ .764-    181217 J95 .875+ .032-    190316 U69 .078- .572-
181209 T05 .231- .267+    190315 C95 .088- .371-    190329 C95 4.70- 4.71-
181209 T05 .095- .155+    190315 C95 .491- .263-    190329 C95 2.85- 2.88-
181215 T08 .564- .493+    190315 C95 .258+ .117+    190329 C95 3.91- 4.12-
181215 T08 .610- .396+    190315 C95 2.82+ 2.42-    190329 C95 4.91- 5.07-
181215 T08 1.03- .627+    190316 C95 .765+ 1.15+    190331 703 1.09+ 1.38-
181215 T08 .913- .359+    190316 C95 .840- .986+    190331 703 1.93+ 1.62-
181217 J95 .822+ .066-    190316 C95 .912- .858+
181217 J95 .528- .163+    190316 C95 .556+ 1.08+

